Regional Weather Roundup
Issued by NWS Kansas City/Pleasant Hill, MO

Home | Current Version | Previous Version | Graphics & Text | Print | Product List | Glossary Off
Versions: 1 2 3 4 5 6 7 8 9 10 11 12 13 14 15 16 17 18 19 20 21 22 23 24 25 26 27 28

000
ASUS43 KEAX 221310
RWREAX

WEATHER ROUNDUP FOR EASTERN KANSAS AND NORTHWEST MISSOURI
NATIONAL WEATHER SERVICE KANSAS CITY/PLEASANT HILL MO
800 AM CDT FRI SEP 22 2017

KSZ040-057-103>105-MOZ028-029-037-043-221400-
...KANSAS CITY METROPOLITAN AREA...

CITY           SKY/WX    TMP DP  RH WIND       PRES   REMARKS
K.C. INTL      MOCLDY    74  70  87 S14       29.95S
K.C. DOWNTOWN  CLEAR     76  71  85 S12G22    29.95R
LEES SUMMIT    CLEAR     73  70  90 S13       29.98S
OLATHE - IXD   CLEAR     73  69  87 S14G22    29.97R
OLATHE - OJC   CLEAR     70  70 100 S10       29.98R
LAWRENCE       CLEAR     74  71  91 SE10      29.94R

$$

MOZ001>008-011>017-020>025-030>033-038>040-044>046-053-054-221400-
...NORTHERN AND CENTRAL MISSOURI...

CITY           SKY/WX    TMP DP  RH WIND       PRES   REMARKS
ST. JOSEPH     CLEAR     75  71  87 S13       29.93R
MOSBY          SUNNY     70  68  94 SE7       29.97S
WARRENSBURG    SUNNY     72  68  88 SE8       30.00S
WHITEMAN AFB   SUNNY     72  72 100 S8        30.00R
CLINTON        SUNNY     73  70  88 S5        30.02R
SEDALIA        SUNNY     73  71  93 S7        30.03R
WARSAW         NOT AVBL
CHILLICOTHE      N/A     73  70  90 S7        29.99S
KIRKSVILLE     SUNNY     72  68  87 S7        30.02S

$$

MOZ041-047>049-056>058-063>065-088>090-097-221400-
...EASTERN AND SOUTHERN MISSOURI...

CITY           SKY/WX    TMP DP  RH WIND       PRES   REMARKS
ST. LOUIS INTL MOSUNNY   75  70  84 CALM      30.07S
SPIRIT OF STL  SUNNY     71  70  96 CALM      30.06R
COLUMBIA       SUNNY     73  70  90 SE8       30.04S
JEFFERSON CITY SUNNY     71  68  90 SE5       30.03S
ROLLA          SUNNY     74  69  85 S7        30.08R
OSAGE BEACH    SUNNY     71  69  93 S6        30.05S
SPRINGFIELD    SUNNY     73  69  87 SE12      30.05R
BRANSON        SUNNY     72  68  88 S5        30.07S
JOPLIN         CLEAR     72  71  97 SE8       30.01R
WEST PLAINS    SUNNY     71  68  90 NE3       30.09R

$$

IAZ060-094-KSZ022-034>040-054-083-096-NEZ052-066-093-221400-
...KANSAS...SOUTHEAST NEBRASKA AND IOWA...

CITY           SKY/WX    TMP DP  RH WIND       PRES   REMARKS
TOPEKA         PTCLDY    76  71  85 SE7       29.92R
MANHATTAN      CLEAR     77  69  76 S10       29.88R
EMPORIA        PTCLDY    72  69  90 S15       29.93R
CHANUTE        CLEAR     73  69  87 S9        29.97R
WICHITA        PTCLDY    73  70  90 S13       29.90R
OMAHA          PTCLDY    77  69  76 S15       29.83S
LINCOLN        CLEAR     76  68  76 S15       29.82S
FALLS CITY     CLEAR     76  69  79 S8        29.89R
LAMONI         CLEAR     72  69  90 S14       29.96S
DES MOINES     PTCLDY    74  70  87 S9        29.92R

$$





USA.gov is the U.S. government's official web portal to all federal, state and local government web resources and services.